W8SZ Weather Reports


Display with metric or nautical units.
time (UTC)temp
F
wind
direction
speed
MPH
gust
MPH
rain 1hr
in
rain 24hr
in
rain mn
in
humidity
%
barometer
mb
20170622182839 60 202 11.0 0.0 0.00 0.00 0.18 100 1006.4
20170622182348 60 187 6.0 0.0 0.00 0.00 0.18 100 1006.2
20170622181835 60 212 7.0 0.0 0.00 0.00 0.18 100 1006.6
20170622181345 60 195 9.0 0.0 0.00 0.00 0.18 100 1006.2
20170622180833 60 208 8.0 0.0 0.00 0.00 0.18 100 1006.5
20170622180343 60 208 9.0 0.0 0.00 0.00 0.18 100 1006.7
20170622175837 61 200 9.0 0.0 0.00 0.00 0.18 100 1006.4
20170622175346 61 206 9.0 0.0 0.00 0.00 0.18 100 1005.9
20170622174834 60 201 9.0 0.0 0.00 0.00 0.18 100 1006.0
20170622174343 60 203 12.0 0.0 0.00 0.00 0.18 100 1006.3
20170622173833 60 231 8.0 0.0 0.00 0.00 0.18 100 1006.3
20170622173401 60 201 9.0 0.0 0.00 0.00 0.18 100 1006.4
20170622172838 60 226 8.0 0.0 0.00 0.00 0.18 100 1006.7
20170622172350 59 217 13.0 0.0 0.00 0.00 0.18 100 1006.6
20170622171840 59 209 7.0 0.0 0.00 0.00 0.18 100 1006.7
20170622171347 59 229 8.0 0.0 0.00 0.00 0.18 100 1006.5
20170622170835 59 219 13.0 0.0 0.00 0.00 0.18 100 1006.2
20170622170342 59 218 11.0 0.0 0.00 0.00 0.18 100 1006.7
20170622165841 59 213 10.0 0.0 0.00 0.00 0.18 100 1006.4
20170622165350 59 205 11.0 0.0 0.00 0.00 0.18 100 1006.3
20170622164839 59 207 9.0 0.0 0.00 0.00 0.18 100 1006.9
20170622164350 59 201 8.0 0.0 0.00 0.00 0.18 100 1007.4
20170622163840 59 219 10.0 0.0 0.00 0.00 0.18 100 1006.9
20170622163350 59 192 7.0 0.0 0.00 0.00 0.18 100 1006.9
20170622162849 59 201 9.0 0.0 0.00 0.00 0.18 100 1006.9
20170622162335 59 209 11.0 0.0 0.00 0.00 0.18 100 1007.0
20170622161838 59 214 12.0 0.0 0.00 0.00 0.18 100 1007.5
20170622161347 59 220 9.0 0.0 0.00 0.00 0.18 100 1007.0
20170622160837 59 213 12.0 0.0 0.00 0.00 0.18 100 1007.1
20170622160346 60 219 17.0 0.0 0.00 0.00 0.18 100 1007.7
20170622155846 60 200 7.0 0.0 0.00 0.00 0.18 100 1007.4
20170622155334 60 209 13.0 0.0 0.00 0.00 0.18 100 1007.8
20170622154842 60 208 6.0 0.0 0.00 0.00 0.18 100 1007.3
20170622154350 60 221 8.0 0.0 0.00 0.00 0.18 100 1007.6
20170622153838 60 195 9.0 0.0 0.00 0.00 0.18 100 1007.7
20170622153346 60 219 13.0 0.0 0.00 0.00 0.18 100 1007.8
20170622152846 60 211 13.0 0.0 0.00 0.00 0.18 100 1007.5
20170622152336 59 246 6.0 0.0 0.00 0.00 0.18 100 1007.5
20170622151843 59 214 8.0 0.0 0.00 0.00 0.18 100 1007.6
20170622151350 58 200 13.0 0.0 0.00 0.00 0.18 100 1007.8
20170622150840 59 210 10.0 0.0 0.00 0.00 0.18 100 1008.0
20170622150348 59 232 4.0 0.0 0.00 0.00 0.18 100 1007.8
20170622145848 59 217 6.0 0.0 0.00 0.00 0.17 100 1008.5
20170622145337 58 213 11.0 0.0 0.00 0.00 0.17 100 1008.2
20170622144846 58 256 8.0 0.0 0.00 0.00 0.17 100 1008.5
20170622144336 58 210 6.0 0.0 0.00 0.00 0.17 100 1008.6
20170622143840 58 213 10.0 0.0 0.00 0.00 0.17 100 1008.2
20170622143352 57 225 10.0 0.0 0.00 0.00 0.17 100 1008.3
20170622142852 58 221 6.0 0.0 0.00 0.00 0.13 100 1008.5
20170622142339 57 216 9.0 0.0 0.00 0.00 0.13 100 1009.0
20170622141849 57 204 6.0 0.0 0.00 0.00 0.13 100 1008.8
20170622141338 57 220 6.0 0.0 0.00 0.00 0.13 100 1008.8
20170622140846 57 215 9.0 0.0 0.00 0.00 0.13 100 1009.1
20170622140355 57 202 8.0 0.0 0.00 0.00 0.13 100 1009.1
20170622135836 57 207 10.0 0.0 0.00 0.00 0.08 100 1009.0
20170622135346 57 220 7.0 0.0 0.00 0.00 0.08 100 1009.2
20170622134835 57 216 7.0 0.0 0.00 0.00 0.08 100 1009.2
20170622134343 57 221 7.0 15.0 0.00 0.00 0.08 100 1009.6
20170622133850 57 219 8.0 14.0 0.00 0.00 0.08 100 1008.9
20170622133357 57 204 9.0 13.0 0.00 0.00 0.08 100 1009.5
20170622132852 57 214 8.0 15.0 0.00 0.00 0.08 100 1009.6
20170622132340 57 210 8.0 15.0 0.00 0.00 0.08 100 1009.6
20170622131846 57 232 8.0 15.0 0.00 0.00 0.08 100 1010.1
20170622131354 57 204 10.0 15.0 0.00 0.00 0.08 100 1010.0
20170622130840 57 215 9.0 15.0 0.00 0.00 0.08 100 1010.0
20170622130346 57 225 7.0 12.0 0.00 0.00 0.08 100 1010.2
20170622125836 58 202 7.0 0.0 0.00 0.00 0.06 100 1009.5
20170622125343 58 225 6.0 0.0 0.00 0.00 0.06 100 1009.7
20170622124834 58 228 6.0 0.0 0.00 0.00 0.06 100 1010.0
20170622124344 58 228 5.0 0.0 0.00 0.00 0.06 100 1009.8
20170622123834 59 217 3.0 0.0 0.00 0.00 0.06 100 1009.2
20170622123345 59 200 12.0 0.0 0.00 0.00 0.06 100 1009.6
20170622122844 59 214 10.0 0.0 0.00 0.00 0.01 100 1009.6
20170622122332 59 240 3.0 0.0 0.00 0.00 0.01 100 1010.3
20170622121841 59 227 12.0 0.0 0.00 0.00 0.01 100 1010.1
20170622121351 59 261 4.0 0.0 0.00 0.00 0.01 100 1009.9
20170622120841 58 214 3.0 0.0 0.00 0.00 0.01 100 1010.3
20170622120338 58 225 5.0 0.0 0.00 0.00 0.01 100 1009.7
20170622115838 58 200 4.0 0.0 0.00 0.00 0.01 100 1009.8
20170622115347 58 200 9.0 0.0 0.00 0.00 0.01 100 1009.7
20170622114837 58 223 5.0 0.0 0.00 0.00 0.01 100 1010.0
20170622114346 57 213 3.0 0.0 0.00 0.00 0.01 100 1010.4
20170622113836 57 220 2.0 0.0 0.00 0.00 0.01 100 1009.7
20170622113402 57 209 2.0 0.0 0.00 0.00 0.01 100 1009.2
20170622112840 57 202 3.0 0.0 0.00 0.00 0.01 100 1009.0
20170622112350 57 228 3.0 0.0 0.00 0.00 0.01 100 1009.1
20170622111840 58 193 10.0 0.0 0.00 0.00 0.01 100 1009.4
20170622111348 58 237 4.0 0.0 0.00 0.00 0.01 100 1009.2
20170622110839 57 219 10.0 0.0 0.00 0.00 0.01 100 1009.4
20170622110347 57 230 6.0 0.0 0.00 0.00 0.01 100 1009.2
20170622105847 56 236 8.0 0.0 0.00 0.00 0.00 100 1008.5
20170622105338 56 222 3.0 0.0 0.00 0.00 0.00 100 1008.8
20170622104847 56 203 4.0 0.0 0.00 0.00 0.00 100 1009.2
20170622104335 56 220 3.0 0.0 0.00 0.00 0.00 100 1009.1
20170622103840 56 209 6.0 0.0 0.00 0.00 0.00 100 1008.6
20170622103350 56 209 5.0 0.0 0.00 0.00 0.00 100 1009.4
20170622102849 56 217 3.0 0.0 0.00 0.00 0.00 100 1009.5
20170622102338 55 227 1.0 0.0 0.00 0.00 0.00 100 1009.9
20170622101847 55 227 1.0 0.0 0.00 0.00 0.00 100 1009.7
20170622101337 55 224 0.0 0.0 0.00 0.00 0.00 100 1010.4
20170622100848 55 224 0.0 0.0 0.00 0.00 0.00 100 1010.2
20170622100357 55 224 1.0 0.0 0.00 0.00 0.00 100 1010.2
20170622095836 55 224 0.0 0.0 0.00 0.00 0.00 100 1010.1
20170622095342 55 224 0.0 0.0 0.00 0.00 0.00 100 1010.0
20170622094852 55 224 0.0 0.0 0.00 0.00 0.00 100 1010.4
20170622094339 54 224 0.0 0.0 0.00 0.00 0.00 100 1010.2
20170622093850 54 223 0.0 0.0 0.00 0.00 0.00 100 1010.3
20170622093401 54 224 0.0 0.0 0.00 0.00 0.00 100 1009.7
20170622092841 54 224 0.0 0.0 0.00 0.00 0.00 100 1009.8
20170622092348 54 224 0.0 0.0 0.00 0.00 0.00 100 1009.8
20170622091839 54 223 0.0 0.0 0.00 0.00 0.00 100 1009.9
20170622091348 54 224 0.0 0.0 0.00 0.00 0.00 100 1009.7
20170622090837 54 224 0.0 0.0 0.00 0.00 0.00 100 1009.7
20170622090348 54 224 0.0 0.0 0.00 0.00 0.00 100 1010.0
20170622085850 54 224 0.0 0.0 0.00 0.00 0.00 100 1010.3
20170622085336 54 224 0.0 0.0 0.00 0.00 0.00 100 1010.3
20170622084848 54 224 0.0 0.0 0.00 0.00 0.00 100 1010.0
20170622084337 54 224 0.0 0.0 0.00 0.00 0.00 100 1010.2
20170622083847 54 224 0.0 0.0 0.00 0.00 0.00 100 1010.6
20170622083358 54 224 0.0 0.0 0.00 0.00 0.00 100 1010.5
20170622082836 54 224 0.0 0.0 0.00 0.00 0.00 100 1010.7
20170622082346 54 224 0.0 0.0 0.00 0.00 0.00 100 1010.1
20170622081836 54 224 0.0 0.0 0.00 0.00 0.00 100 1010.3
20170622081343 54 223 1.0 0.0 0.00 0.00 0.00 100 1010.9
20170622080834 54 223 0.0 0.0 0.00 0.00 0.00 100 1010.4
20170622080400 54 224 0.0 0.0 0.00 0.00 0.00 100 1010.3
20170622075839 54 224 0.0 0.0 0.00 0.00 0.00 100 1010.5
20170622075346 54 223 0.0 0.0 0.00 0.00 0.00 100 1010.5
20170622074838 54 223 0.0 0.0 0.00 0.00 0.00 100 1010.6
20170622074346 54 224 0.0 0.0 0.00 0.00 0.00 100 1010.7
20170622073837 54 224 0.0 0.0 0.00 0.00 0.00 100 1010.6
20170622073346 54 224 0.0 0.0 0.00 0.00 0.00 100 1010.4
20170622072846 54 224 1.0 0.0 0.00 0.00 0.00 100 1010.6
20170622072335 54 223 2.0 0.0 0.00 0.00 0.00 100 1011.0
20170622071847 54 224 0.0 0.0 0.00 0.00 0.00 100 1010.7
20170622071337 54 223 1.0 0.0 0.00 0.00 0.00 100 1010.5
20170622070847 54 223 2.0 0.0 0.00 0.00 0.00 100 1010.6
20170622070356 54 223 1.0 0.0 0.00 0.00 0.00 100 1010.7
20170622065835 54 223 0.0 0.0 0.00 0.00 0.00 100 1010.8
20170622065346 54 223 0.0 0.0 0.00 0.00 0.00 100 1010.7
20170622064833 54 223 1.0 0.0 0.00 0.00 0.00 100 1011.0
20170622064340 54 223 1.0 0.0 0.00 0.00 0.00 100 1011.0
20170622063849 54 223 0.0 0.0 0.00 0.00 0.00 100 1011.4
20170622063359 54 224 1.0 0.0 0.00 0.00 0.00 100 1011.3
20170622062837 54 223 0.0 0.0 0.00 0.00 0.00 100 1011.3
20170622062341 54 223 1.0 0.0 0.00 0.00 0.00 100 1011.1
20170622061832 55 224 0.0 0.0 0.00 0.00 0.00 100 1011.4
20170622061342 55 223 0.0 0.0 0.00 0.00 0.00 100 1011.7
20170622060831 55 223 0.0 0.0 0.00 0.00 0.00 100 1011.5
20170622060344 55 223 0.0 0.0 0.00 0.00 0.00 100 1011.4
20170622055843 55 223 1.0 0.0 0.00 0.00 0.00 100 1011.8
20170622055351 55 223 0.0 0.0 0.00 0.00 0.00 100 1011.5
20170622054840 55 223 0.0 0.0 0.00 0.00 0.00 100 1011.6
20170622054349 55 223 1.0 0.0 0.00 0.00 0.00 100 1011.9
20170622053837 55 223 0.0 0.0 0.00 0.00 0.00 100 1011.9
20170622053347 55 223 0.0 0.0 0.00 0.00 0.00 100 1012.1
20170622052848 56 223 0.0 0.0 0.00 0.00 0.00 100 1012.3
20170622052337 56 224 0.0 0.0 0.00 0.00 0.00 100 1012.3
20170622051846 56 223 0.0 0.0 0.00 0.00 0.00 100 1012.4
20170622051333 56 223 0.0 0.0 0.00 0.00 0.00 100 1012.3
20170622050844 56 223 0.0 0.0 0.00 0.00 0.00 100 1012.0
20170622050353 56 223 0.0 0.0 0.00 0.00 0.00 100 1012.4
20170622045833 56 223 0.0 0.0 0.00 0.00 0.00 100 1012.3
20170622045343 56 223 0.0 0.0 0.00 0.00 0.00 100 1011.9
20170622044834 56 223 1.0 0.0 0.00 0.00 0.00 100 1012.1
20170622044344 56 223 1.0 0.0 0.00 0.00 0.00 100 1012.1
20170622043834 56 223 2.0 0.0 0.00 0.00 0.00 100 1012.3
20170622043358 56 223 1.0 0.0 0.00 0.00 0.00 100 1012.2
20170622042840 56 223 0.0 0.0 0.00 0.00 0.00 100 1012.3
20170622042348 57 223 2.0 0.0 0.00 0.00 0.00 100 1012.5
20170622041840 57 223 2.0 0.0 0.00 0.00 0.00 100 1012.4
20170622041349 57 224 0.0 0.0 0.00 0.00 0.00 100 1012.3
20170622040839 57 223 3.0 0.0 0.00 0.00 0.00 100 1012.4
20170622040352 57 224 4.0 0.0 0.00 0.00 0.00 100 1012.3
20170622035833 57 224 3.0 0.0 0.00 0.00 0.00 100 1012.5
20170622035342 57 217 2.0 0.0 0.00 0.00 0.00 100 1012.9
20170622034852 57 216 3.0 0.0 0.00 0.00 0.00 100 1012.4
20170622034339 57 216 1.0 0.0 0.00 0.00 0.00 100 1012.3
20170622033849 57 216 0.0 0.0 0.00 0.00 0.00 100 1012.3
20170622033358 57 216 3.0 0.0 0.00 0.00 0.00 100 1012.4
20170622032838 57 215 2.0 0.0 0.00 0.00 0.00 100 1012.5
20170622032345 57 214 6.0 0.0 0.00 0.00 0.00 100 1012.7
20170622031835 57 218 4.0 0.0 0.00 0.00 0.00 100 1012.4
20170622031343 57 227 2.0 0.0 0.00 0.00 0.00 100 1012.7
20170622030833 57 227 1.0 0.0 0.00 0.00 0.00 100 1012.6
20170622030344 57 227 1.0 0.0 0.00 0.00 0.00 100 1012.7
20170622025843 57 227 0.0 0.0 0.00 0.00 0.00 100 1012.7
20170622025334 57 229 5.0 0.0 0.00 0.00 0.00 100 1012.9
20170622024839 57 231 2.0 0.0 0.00 0.00 0.00 100 1012.9
20170622024349 57 216 0.0 0.0 0.00 0.00 0.00 100 1012.8
20170622023839 57 241 4.0 0.0 0.00 0.00 0.00 100 1012.6
20170622023350 57 220 3.0 0.0 0.00 0.00 0.00 100 1013.0
20170622022849 57 242 2.0 0.0 0.00 0.00 0.00 100 1012.9
20170622022337 57 228 5.0 0.0 0.00 0.00 0.00 100 1012.9
20170622021846 57 206 4.0 0.0 0.00 0.00 0.00 100 1012.7
20170622021335 57 227 3.0 0.0 0.00 0.00 0.00 100 1012.9
20170622020845 57 223 2.0 0.0 0.00 0.00 0.00 100 1012.8
20170622020356 57 235 3.0 0.0 0.00 0.00 0.00 100 1012.5
20170622015838 57 192 2.0 0.0 0.00 0.00 0.00 100 1012.8
20170622015330 57 231 2.0 0.0 0.00 0.00 0.00 100 1012.8
20170622014841 57 232 1.0 0.0 0.00 0.00 0.00 100 1012.2
20170622014349 57 240 2.0 0.0 0.00 0.00 0.00 100 1012.6
20170622013839 57 217 1.0 0.0 0.00 0.00 0.00 100 1012.2
20170622013350 57 218 4.0 0.0 0.00 0.00 0.00 100 1011.8
20170622012851 57 233 1.0 0.0 0.00 0.00 0.00 100 1012.1
20170622012339 57 227 3.0 0.0 0.00 0.00 0.00 100 1012.4
20170622011849 57 213 4.0 0.0 0.00 0.00 0.00 100 1012.4
20170622011339 57 229 4.0 0.0 0.00 0.00 0.00 100 1012.2
20170622010831 57 239 3.0 0.0 0.00 0.00 0.00 100 1012.7
20170622010358 57 207 1.0 0.0 0.00 0.00 0.00 100 1011.8
20170622005835 57 207 2.0 0.0 0.00 0.00 0.00 100 1011.8
20170622005344 58 202 2.0 0.0 0.00 0.00 0.00 100 1011.8
20170622004833 58 203 1.0 0.0 0.00 0.00 0.00 100 1012.0
20170622004341 58 237 5.0 0.0 0.00 0.00 0.00 100 1011.9
20170622003849 58 196 3.0 0.0 0.00 0.00 0.00 100 1012.1
20170622003358 58 228 4.0 0.0 0.00 0.00 0.00 100 1012.7
20170622002839 58 209 2.0 0.0 0.00 0.00 0.00 100 1011.8
20170622002348 58 201 3.0 0.0 0.00 0.00 0.00 100 1012.1
20170622001835 58 221 4.0 0.0 0.00 0.00 0.00 100 1011.7
20170622001344 58 221 6.0 0.0 0.00 0.00 0.00 100 1012.1
20170622000833 58 243 5.0 0.0 0.00 0.00 0.00 100 1011.5
20170622000401 58 204 2.0 0.0 0.00 0.00 0.00 100 1012.1
20170621235839 58 213 5.0 0.0 0.00 0.00 0.00 100 1011.8
20170621235348 58 209 3.0 0.0 0.00 0.00 0.00 100 1012.0
20170621234836 58 210 2.0 0.0 0.00 0.00 0.00 100 1011.8
20170621234344 58 211 2.0 0.0 0.00 0.00 0.00 100 1011.8
20170621233834 58 208 3.0 0.0 0.00 0.00 0.00 100 1012.8
20170621233341 59 215 5.0 0.0 0.00 0.00 0.00 100 1012.7
20170621232842 59 217 4.0 0.0 0.00 0.00 0.00 100 1012.9
20170621232345 59 215 2.0 0.0 0.00 0.00 0.00 100 1012.2
20170621231835 59 215 3.0 0.0 0.00 0.00 0.00 100 1012.4
20170621231344 59 208 3.0 0.0 0.00 0.00 0.00 100 1012.5
20170621230834 59 237 2.0 0.0 0.00 0.00 0.00 100 1012.6
20170621230343 59 224 3.0 0.0 0.00 0.00 0.00 99 1012.5
20170621225841 59 215 8.0 0.0 0.00 0.00 0.00 100 1012.1
20170621225349 59 202 3.0 0.0 0.00 0.00 0.00 99 1013.0
20170621224839 59 208 4.0 0.0 0.00 0.00 0.00 99 1013.0
20170621224349 59 213 4.0 0.0 0.00 0.00 0.00 98 1013.1
20170621223839 59 213 4.0 0.0 0.00 0.00 0.00 97 1012.8
20170621223347 59 213 2.0 0.0 0.00 0.00 0.00 97 1012.7
20170621222846 60 193 1.0 0.0 0.00 0.00 0.00 96 1013.2
20170621222352 60 193 2.0 5.0 0.00 0.00 0.00 96 1012.8
20170621221837 60 193 2.0 5.0 0.00 0.00 0.00 97 1013.4
20170621221347 60 193 2.0 5.0 0.00 0.00 0.00 97 1012.8
20170621220853 60 198 4.0 6.0 0.00 0.00 0.00 97 1013.3
20170621220352 60 202 3.0 6.0 0.00 0.00 0.00 96 1012.7
20170621215838 60 202 4.0 7.0 0.00 0.00 0.00 96 1013.0
20170621215344 60 201 5.0 9.0 0.00 0.00 0.00 96 1012.8
20170621214846 60 205 5.0 9.0 0.00 0.00 0.00 96 1012.5
20170621214349 60 213 5.0 11.0 0.00 0.00 0.00 95 1012.8
20170621213859 60 222 5.0 11.0 0.00 0.00 0.00 95 1012.9
20170621213336 60 203 5.0 9.0 0.00 0.00 0.00 95 1012.8
20170621212845 60 205 6.0 11.0 0.00 0.00 0.00 96 1012.7
20170621212332 60 194 5.0 11.0 0.00 0.00 0.00 95 1013.1
20170621211842 60 208 6.0 10.0 0.00 0.00 0.00 94 1013.0
20170621211334 60 223 6.0 12.0 0.00 0.00 0.00 95 1013.2
20170621210844 60 215 7.0 12.0 0.00 0.00 0.00 94 1013.1
20170621210350 60 205 7.0 13.0 0.00 0.00 0.00 94 1012.8
20170621205848 60 202 9.0 16.0 0.00 0.00 0.00 96 1013.1
20170621205337 60 210 8.0 16.0 0.00 0.00 0.00 96 1012.8
20170621204844 60 204 7.0 11.0 0.00 0.00 0.00 98 1012.8
20170621204350 60 204 5.0 8.0 0.00 0.00 0.00 98 1012.8
20170621203840 60 196 3.0 7.0 0.00 0.00 0.00 97 1013.0
20170621203348 60 211 5.0 7.0 0.00 0.00 0.00 97 1013.1
20170621202846 60 192 4.0 5.0 0.00 0.00 0.00 97 1013.2
20170621202350 60 199 3.0 7.0 0.00 0.00 0.00 98 1013.1
20170621201850 60 202 3.0 7.0 0.00 0.00 0.00 97 1013.0
20170621201336 60 198 4.0 8.0 0.00 0.00 0.00 97 1013.9
20170621200841 60 202 5.0 8.0 0.00 0.00 0.00 96 1013.8
20170621200350 61 201 4.0 10.0 0.00 0.00 0.00 96 1013.3
20170621195846 61 197 5.0 10.0 0.00 0.00 0.00 97 1013.6
20170621195350 61 198 4.0 11.0 0.00 0.00 0.00 96 1013.5
20170621194854 61 217 6.0 11.0 0.00 0.00 0.00 96 1013.8
20170621194342 61 209 5.0 11.0 0.00 0.00 0.00 97 1013.5
20170621193849 61 201 6.0 10.0 0.00 0.00 0.00 97 1013.7
20170621193358 61 201 6.0 10.0 0.00 0.00 0.00 97 1013.2
20170621192852 61 200 6.0 11.0 0.00 0.00 0.00 97 1013.3
20170621192340 61 207 7.0 11.0 0.00 0.00 0.00 97 1013.7
20170621191846 61 203 7.0 10.0 0.00 0.00 0.00 98 1013.3
20170621191350 60 193 7.0 10.0 0.00 0.00 0.00 99 1013.4
20170621190837 60 198 7.0 10.0 0.00 0.00 0.00 99 1013.7
20170621190346 60 202 7.0 10.0 0.00 0.00 0.00 100 1014.3
20170621185842 60 203 7.0 11.0 0.00 0.00 0.00 99 1013.5
20170621185344 60 207 6.0 11.0 0.00 0.00 0.00 100 1013.5
20170621184851 60 210 6.0 10.0 0.00 0.00 0.00 100 1013.6
20170621184338 60 202 7.0 10.0 0.00 0.00 0.00 100 1013.5
20170621183846 60 202 8.0 11.0 0.00 0.00 0.00 100 1013.4
20170621183352 60 207 7.0 11.0 0.00 0.00 0.00 100 1013.8